Location: Newark
(48.8604°N, 2.3376°E)
Time: 18:53:07
(UTC+00:00)

N. Korean satellite - Pass Details

Date: 03 October 2021
Orbit: 450 x 495 km, 97.3° (Epoch: 16 October)

Event Time Altitude Azimuth Distance (km) Brightness Sun altitude
Rises 04:27:15 0° 24° (NNE) 2,554 10.7 -14.9°
Reaches altitude 10° 04:29:36 10° 38° (NE) 1,677 10.0 -14.5°
Maximum altitude 04:32:36 24° 94° (E) 1,051 9.2 -14.0°
Drops below altitude 10° 04:35:35 10° 150° (SSE) 1,682 9.6 -13.6°
Sets 04:37:57 0° 165° (SSE) 2,563 10.3 -13.2°
